Time,TemperatureF,DewpointF,PressureIn,WindDirection,WindDirectionDegrees,WindSpeedMPH,WindSpeedGustMPH,Humidity,HourlyPrecipIn,Conditions,Clouds,dailyrainin,SoftwareType,DateUTC
2013-07-28 00:03:00,60.4,49.0,30.00,North,4,1.0,2.0,66,0.00,,FEW250,0.00,VWS V14.01,2013-07-28 05:03:00,
2013-07-28 00:08:00,60.3,48.9,30.00,North,4,2.0,2.0,66,0.00,,FEW250,0.00,VWS V14.01,2013-07-28 05:08:00,
2013-07-28 00:13:00,60.1,49.1,30.00,North,4,2.0,3.0,67,0.00,,FEW250,0.00,VWS V14.01,2013-07-28 05:13:00,
2013-07-28 00:18:00,59.9,48.9,30.00,North,4,2.0,4.0,67,0.00,,FEW250,0.00,VWS V14.01,2013-07-28 05:18:00,
2013-07-28 00:23:00,59.7,48.7,30.00,NNE,16,2.0,4.0,67,0.00,,FEW250,0.00,VWS V14.01,2013-07-28 05:23:00,
2013-07-28 00:28:00,59.6,49.0,30.01,NNE,16,2.0,2.0,68,0.00,,FEW250,0.00,VWS V14.01,2013-07-28 05:28:00,
2013-07-28 00:33:00,59.5,48.9,30.01,NNE,16,0.0,3.0,68,0.00,,FEW250,0.00,VWS V14.01,2013-07-28 05:33:00,
2013-07-28 00:38:00,59.4,49.2,30.01,NNE,16,0.0,1.0,69,0.00,,FEW250,0.00,VWS V14.01,2013-07-28 05:38:00,
2013-07-28 00:43:00,59.2,49.0,30.01,NNE,16,0.0,2.0,69,0.00,,FEW250,0.00,VWS V14.01,2013-07-28 05:43:00,
2013-07-28 00:48:00,59.1,48.6,30.01,NNE,16,0.0,2.0,68,0.00,,FEW250,0.00,VWS V14.01,2013-07-28 05:48:00,
2013-07-28 00:53:00,59.0,48.9,30.01,North,4,1.0,4.0,69,0.00,,FEW250,0.00,VWS V14.01,2013-07-28 05:53:00,
2013-07-28 00:58:00,58.9,48.8,30.01,North,4,3.0,3.0,69,0.00,,FEW250,0.00,VWS V14.01,2013-07-28 05:58:00,
2013-07-28 01:03:00,58.9,48.8,30.01,North,4,0.0,3.0,69,0.00,,FEW250,0.00,VWS V14.01,2013-07-28 06:03:00,
2013-07-28 01:08:00,58.9,48.8,30.01,North,4,0.0,3.0,69,0.00,,FEW250,0.00,VWS V14.01,2013-07-28 06:08:00,
2013-07-28 01:13:00,58.7,48.6,30.01,North,4,0.0,3.0,69,0.00,,FEW250,0.00,VWS V14.01,2013-07-28 06:13:00,
2013-07-28 01:18:00,58.7,48.6,30.01,North,4,1.0,4.0,69,0.00,,FEW250,0.00,VWS V14.01,2013-07-28 06:18:00,
2013-07-28 01:23:00,58.6,48.5,30.01,North,4,2.0,3.0,69,0.00,,FEW250,0.00,VWS V14.01,2013-07-28 06:23:00,
2013-07-28 01:28:00,58.5,48.4,30.01,North,4,0.0,2.0,69,0.00,,FEW250,0.00,VWS V14.01,2013-07-28 06:28:00,
2013-07-28 01:33:00,58.3,48.6,30.01,North,4,1.0,3.0,70,0.00,,FEW250,0.00,VWS V14.01,2013-07-28 06:33:00,
2013-07-28 01:38:00,58.2,48.5,30.01,North,4,0.0,2.0,70,0.00,,FEW250,0.00,VWS V14.01,2013-07-28 06:38:00,
2013-07-28 01:43:00,58.1,48.4,30.01,North,4,2.0,3.0,70,0.00,,SCT250,0.00,VWS V14.01,2013-07-28 06:43:00,
2013-07-28 01:49:00,58.2,48.5,30.01,North,4,1.0,2.0,70,0.00,,SCT250,0.00,VWS V14.01,2013-07-28 06:49:00,
2013-07-28 01:54:00,58.2,48.5,30.01,North,4,2.0,3.0,70,0.00,,SCT250,0.00,VWS V14.01,2013-07-28 06:54:00,
2013-07-28 01:59:00,58.1,48.4,30.01,North,4,3.0,3.0,70,0.00,,SCT250,0.00,VWS V14.01,2013-07-28 06:59:00,
2013-07-28 02:04:00,58.0,48.3,30.01,North,4,2.0,3.0,70,0.00,,SCT250,0.00,VWS V14.01,2013-07-28 07:04:00,
2013-07-28 02:09:00,57.9,48.2,30.01,North,4,0.0,2.0,70,0.00,,SCT250,0.00,VWS V14.01,2013-07-28 07:09:00,
2013-07-28 02:14:00,57.7,48.4,30.01,North,4,0.0,1.0,71,0.00,,SCT250,0.00,VWS V14.01,2013-07-28 07:14:00,
2013-07-28 02:19:00,57.6,48.3,30.01,North,4,0.0,1.0,71,0.00,,SCT250,0.00,VWS V14.01,2013-07-28 07:19:00,
2013-07-28 02:24:00,57.5,48.2,30.01,North,4,1.0,1.0,71,0.00,,SCT250,0.00,VWS V14.01,2013-07-28 07:24:00,
2013-07-28 02:29:00,57.3,48.4,30.01,North,4,1.0,2.0,72,0.00,,SCT250,0.00,VWS V14.01,2013-07-28 07:29:00,
2013-07-28 02:34:00,57.1,48.2,30.01,North,4,0.0,1.0,72,0.00,,SCT250,0.00,VWS V14.01,2013-07-28 07:34:00,
2013-07-28 02:39:00,57.0,48.4,30.01,North,4,0.0,0.0,73,0.00,,SCT250,0.00,VWS V14.01,2013-07-28 07:39:00,
2013-07-28 02:44:00,56.9,48.3,30.01,North,4,2.0,2.0,73,0.00,,SCT250,0.00,VWS V14.01,2013-07-28 07:44:00,
2013-07-28 02:49:00,56.8,48.2,30.01,North,4,1.0,1.0,73,0.00,,SCT250,0.00,VWS V14.01,2013-07-28 07:49:00,
2013-07-28 02:54:00,56.7,48.2,30.01,North,4,0.0,0.0,73,0.00,,SCT250,0.00,VWS V14.01,2013-07-28 07:54:00,
2013-07-28 02:59:00,56.6,48.1,30.01,North,4,2.0,2.0,73,0.00,,SCT250,0.00,VWS V14.01,2013-07-28 07:59:00,
2013-07-28 03:04:00,56.6,48.1,30.01,North,4,0.0,1.0,73,0.00,,SCT250,0.00,VWS V14.01,2013-07-28 08:04:00,
2013-07-28 03:09:00,56.5,48.7,30.01,North,4,0.0,0.0,75,0.00,,SCT250,0.00,VWS V14.01,2013-07-28 08:09:00,
2013-07-28 03:14:00,56.3,48.1,30.01,North,4,0.0,0.0,74,0.00,,SCT250,0.00,VWS V14.01,2013-07-28 08:14:00,
2013-07-28 03:19:00,56.0,48.2,30.00,North,4,0.0,0.0,75,0.00,,SCT250,0.00,VWS V14.01,2013-07-28 08:19:00,
2013-07-28 03:24:00,55.8,48.4,30.00,North,4,0.0,0.0,76,0.00,,SCT250,0.00,VWS V14.01,2013-07-28 08:24:00,
2013-07-28 03:29:00,55.4,48.3,30.00,North,4,0.0,0.0,77,0.00,,SCT250,0.00,VWS V14.01,2013-07-28 08:29:00,
2013-07-28 03:34:00,55.2,48.1,30.00,North,4,0.0,0.0,77,0.00,,SCT250,0.00,VWS V14.01,2013-07-28 08:34:00,
2013-07-28 03:39:00,55.1,48.0,30.00,North,4,0.0,0.0,77,0.00,,SCT250,0.00,VWS V14.01,2013-07-28 08:39:00,
2013-07-28 03:44:00,55.1,48.4,30.00,North,4,0.0,1.0,78,0.00,,FEW250,0.00,VWS V14.01,2013-07-28 08:44:00,
2013-07-28 03:49:00,54.9,48.2,29.99,North,4,0.0,0.0,78,0.00,,FEW250,0.00,VWS V14.01,2013-07-28 08:49:00,
2013-07-28 03:54:00,54.8,47.7,30.00,North,4,0.0,0.0,77,0.00,,FEW250,0.00,VWS V14.01,2013-07-28 08:54:00,
2013-07-28 03:59:00,54.7,48.0,30.00,North,4,0.0,0.0,78,0.00,,FEW250,0.00,VWS V14.01,2013-07-28 08:59:00,
2013-07-28 04:04:00,54.7,48.0,30.00,North,4,0.0,0.0,78,0.00,,FEW250,0.00,VWS V14.01,2013-07-28 09:04:00,
2013-07-28 04:09:00,54.7,48.0,30.00,North,4,0.0,0.0,78,0.00,,FEW250,0.00,VWS V14.01,2013-07-28 09:09:00,
2013-07-28 04:14:00,54.6,47.9,30.00,North,4,0.0,0.0,78,0.00,,FEW250,0.00,VWS V14.01,2013-07-28 09:14:00,
2013-07-28 04:19:00,54.6,47.9,30.00,North,4,0.0,0.0,78,0.00,,FEW250,0.00,VWS V14.01,2013-07-28 09:19:00,
2013-07-28 04:24:00,54.6,48.2,30.00,North,4,0.0,0.0,79,0.00,,FEW250,0.00,VWS V14.01,2013-07-28 09:24:00,
2013-07-28 04:29:00,54.6,47.9,30.00,North,4,0.0,0.0,78,0.00,,FEW250,0.00,VWS V14.01,2013-07-28 09:29:00,
2013-07-28 04:34:00,54.6,48.2,30.00,North,4,0.0,1.0,79,0.00,,FEW250,0.00,VWS V14.01,2013-07-28 09:34:00,
2013-07-28 04:39:00,54.5,48.1,30.00,North,4,0.0,0.0,79,0.00,,FEW250,0.00,VWS V14.01,2013-07-28 09:39:00,
2013-07-28 04:44:00,54.3,47.9,30.00,North,4,0.0,0.0,79,0.00,,FEW250,0.00,VWS V14.01,2013-07-28 09:44:00,
2013-07-28 04:49:00,54.3,47.6,30.00,North,4,0.0,0.0,78,0.00,,FEW250,0.00,VWS V14.01,2013-07-28 09:49:00,
2013-07-28 04:54:00,54.3,47.2,30.00,North,4,0.0,0.0,77,0.00,,FEW250,0.00,VWS V14.01,2013-07-28 09:54:00,
2013-07-28 04:59:00,54.5,47.1,30.00,North,4,0.0,0.0,76,0.00,,FEW250,0.00,VWS V14.01,2013-07-28 09:59:00,
2013-07-28 05:04:00,54.6,47.2,30.00,North,4,0.0,0.0,76,0.00,,FEW250,0.00,VWS V14.01,2013-07-28 10:04:00,
2013-07-28 05:10:00,54.7,47.3,30.00,North,4,0.0,0.0,76,0.00,,FEW250,0.00,VWS V14.01,2013-07-28 10:10:00,
2013-07-28 05:15:00,54.6,47.2,30.00,North,4,0.0,1.0,76,0.00,,FEW250,0.00,VWS V14.01,2013-07-28 10:15:00,
2013-07-28 05:20:00,54.8,47.4,30.00,North,4,0.0,0.0,76,0.00,,FEW250,0.00,VWS V14.01,2013-07-28 10:20:00,
2013-07-28 05:25:00,54.8,47.0,30.00,North,4,0.0,1.0,75,0.00,,FEW250,0.00,VWS V14.01,2013-07-28 10:25:00,
2013-07-28 05:30:00,54.8,47.4,30.00,North,4,0.0,0.0,76,0.00,,FEW250,0.00,VWS V14.01,2013-07-28 10:30:00,
2013-07-28 05:35:00,54.8,47.0,30.00,North,4,0.0,0.0,75,0.00,,FEW250,0.00,VWS V14.01,2013-07-28 10:35:00,
2013-07-28 05:40:00,54.9,47.5,30.00,North,4,0.0,0.0,76,0.00,,FEW250,0.00,VWS V14.01,2013-07-28 10:40:00,
2013-07-28 05:45:00,54.6,47.2,30.00,North,4,0.0,0.0,76,0.00,,CLR,0.00,VWS V14.01,2013-07-28 10:45:00,
2013-07-28 05:50:00,54.5,47.1,30.00,North,4,0.0,1.0,76,0.00,,CLR,0.00,VWS V14.01,2013-07-28 10:50:00,
2013-07-28 05:55:00,54.5,46.8,30.00,North,4,0.0,0.0,75,0.00,,CLR,0.00,VWS V14.01,2013-07-28 10:55:00,
2013-07-28 06:00:00,54.7,46.9,30.00,North,4,0.0,0.0,75,0.00,,CLR,0.00,VWS V14.01,2013-07-28 11:00:00,
2013-07-28 06:05:00,55.0,46.9,30.00,North,4,0.0,1.0,74,0.00,,CLR,0.00,VWS V14.01,2013-07-28 11:05:00,
2013-07-28 06:10:00,55.5,46.6,30.01,North,4,1.0,1.0,72,0.00,,CLR,0.00,VWS V14.01,2013-07-28 11:10:00,
2013-07-28 06:15:00,55.8,46.9,30.01,North,4,0.0,0.0,72,0.00,,CLR,0.00,VWS V14.01,2013-07-28 11:15:00,
2013-07-28 06:20:00,55.7,47.2,30.01,North,4,1.0,2.0,73,0.00,,CLR,0.00,VWS V14.01,2013-07-28 11:20:00,
2013-07-28 06:25:00,55.6,47.1,30.01,North,4,0.0,1.0,73,0.00,,CLR,0.00,VWS V14.01,2013-07-28 11:25:00,
2013-07-28 06:30:00,55.8,46.5,30.02,North,4,2.0,3.0,71,0.00,,CLR,0.00,VWS V14.01,2013-07-28 11:30:00,
2013-07-28 06:35:00,56.1,47.2,30.02,North,4,1.0,2.0,72,0.00,,CLR,0.00,VWS V14.01,2013-07-28 11:35:00,
2013-07-28 06:40:00,56.1,47.6,30.02,North,4,0.0,2.0,73,0.00,,CLR,0.00,VWS V14.01,2013-07-28 11:40:00,
2013-07-28 06:45:00,55.9,47.7,30.02,North,4,2.0,2.0,74,0.00,,FEW250,0.00,VWS V14.01,2013-07-28 11:45:00,
2013-07-28 06:50:00,55.8,48.0,30.02,North,4,2.0,2.0,75,0.00,,FEW250,0.00,VWS V14.01,2013-07-28 11:50:00,
2013-07-28 06:55:00,55.9,48.1,30.02,North,4,1.0,2.0,75,0.00,,FEW250,0.00,VWS V14.01,2013-07-28 11:55:00,
2013-07-28 07:00:00,56.0,48.5,30.02,North,4,1.0,1.0,76,0.00,,FEW250,0.00,VWS V14.01,2013-07-28 12:00:00,
2013-07-28 07:05:00,56.2,48.8,30.02,North,4,0.0,1.0,76,0.00,,FEW250,0.00,VWS V14.01,2013-07-28 12:05:00,
2013-07-28 07:10:00,56.6,48.8,30.02,North,4,0.0,0.0,75,0.00,,FEW250,0.00,VWS V14.01,2013-07-28 12:10:00,
2013-07-28 07:15:00,57.1,49.6,30.02,North,4,0.0,0.0,76,0.00,,FEW250,0.00,VWS V14.01,2013-07-28 12:15:00,
2013-07-28 07:20:00,57.8,49.2,30.02,North,4,0.0,0.0,73,0.00,,FEW250,0.00,VWS V14.01,2013-07-28 12:20:00,
2013-07-28 07:25:00,58.5,49.5,30.02,North,4,0.0,0.0,72,0.00,,FEW250,0.00,VWS V14.01,2013-07-28 12:25:00,
2013-07-28 07:30:00,59.1,50.1,30.03,North,4,0.0,0.0,72,0.00,,FEW250,0.00,VWS V14.01,2013-07-28 12:30:00,
2013-07-28 07:35:00,59.6,49.4,30.03,North,4,1.0,1.0,69,0.00,,FEW250,0.00,VWS V14.01,2013-07-28 12:35:00,
2013-07-28 07:40:00,60.0,49.8,30.03,NNW,337,2.0,2.0,69,0.00,,FEW250,0.00,VWS V14.01,2013-07-28 12:40:00,
2013-07-28 07:45:00,60.0,50.2,30.03,NW,316,1.0,4.0,70,0.00,,FEW250,0.00,VWS V14.01,2013-07-28 12:45:00,
2013-07-28 07:50:00,59.9,50.5,30.03,NW,315,0.0,2.0,71,0.00,,SCT250,0.00,VWS V14.01,2013-07-28 12:50:00,
2013-07-28 07:55:00,60.1,51.1,30.03,NW,315,2.0,2.0,72,0.00,,SCT250,0.00,VWS V14.01,2013-07-28 12:55:00,
2013-07-28 08:00:00,60.2,51.5,30.03,NW,315,1.0,2.0,73,0.00,,SCT250,0.00,VWS V14.01,2013-07-28 13:00:00,
2013-07-28 08:05:00,60.1,51.4,30.03,NW,308,0.0,2.0,73,0.00,,SCT250,0.00,VWS V14.01,2013-07-28 13:05:00,
2013-07-28 08:10:00,60.2,51.5,30.03,NW,308,2.0,2.0,73,0.00,,SCT250,0.00,VWS V14.01,2013-07-28 13:10:00,
2013-07-28 08:15:00,60.1,51.4,30.04,NW,308,1.0,2.0,73,0.00,,SCT250,0.00,VWS V14.01,2013-07-28 13:15:00,
2013-07-28 08:20:00,60.1,51.8,30.04,NW,308,0.0,1.0,74,0.00,,SCT250,0.00,VWS V14.01,2013-07-28 13:20:00,
2013-07-28 08:25:00,60.4,51.7,30.04,NW,308,0.0,1.0,73,0.00,,SCT250,0.00,VWS V14.01,2013-07-28 13:25:00,
2013-07-28 08:33:00,61.1,51.6,30.03,NW,308,0.0,1.0,71,0.00,,SCT250,0.00,VWS V14.01,2013-07-28 13:33:00,
2013-07-28 08:38:00,61.3,51.1,30.03,NW,308,1.0,1.0,69,0.00,,SCT250,0.00,VWS V14.01,2013-07-28 13:38:00,
2013-07-28 08:50:00,61.7,51.8,30.03,NW,308,0.0,1.0,70,0.00,,SCT250,0.00,VWS V14.01,2013-07-28 13:50:00,
2013-07-28 08:55:00,62.5,52.2,30.03,NW,308,2.0,2.0,69,0.00,,SCT250,0.00,VWS V14.01,2013-07-28 13:55:00,
2013-07-28 09:00:00,62.9,52.2,30.03,NW,308,1.0,1.0,68,0.00,,SCT250,0.00,VWS V14.01,2013-07-28 14:00:00,
2013-07-28 09:05:00,63.4,52.7,30.03,NW,308,0.0,1.0,68,0.00,,SCT250,0.00,VWS V14.01,2013-07-28 14:05:00,
2013-07-28 09:10:00,64.0,52.4,30.03,WSW,253,2.0,4.0,66,0.00,,SCT250,0.00,VWS V14.01,2013-07-28 14:10:00,
2013-07-28 09:12:00,64.0,52.8,30.03,WSW,249,1.0,3.0,67,0.00,,SCT250,0.00,VWS V14.01,2013-07-28 14:12:00,
2013-07-28 09:17:00,64.2,53.0,30.03,WSW,249,2.0,2.0,67,0.00,,SCT250,0.00,VWS V14.01,2013-07-28 14:17:00,
2013-07-28 20:30:00,71.5,56.0,29.98,East,90,0.0,2.0,58,0.00,,SCT250,0.00,VWS V14.01,2013-07-29 01:30:00,
2013-07-28 20:58:00,69.3,55.7,29.98,East,87,0.0,0.0,62,0.00,,SCT250,0.00,VWS V14.01,2013-07-29 01:58:00,
2013-07-28 21:03:00,69.1,56.0,29.99,East,87,0.0,1.0,63,0.00,,SCT250,0.00,VWS V14.01,2013-07-29 02:03:00,
2013-07-28 21:09:00,68.9,54.5,29.98,East,87,0.0,1.0,60,0.00,,SCT250,0.00,VWS V14.01,2013-07-29 02:09:00,
2013-07-28 21:14:00,68.8,53.9,29.98,East,87,0.0,1.0,59,0.00,,SCT250,0.00,VWS V14.01,2013-07-29 02:14:00,
2013-07-28 21:19:00,68.7,53.8,29.99,East,87,0.0,0.0,59,0.00,,SCT250,0.00,VWS V14.01,2013-07-29 02:19:00,
2013-07-28 21:24:00,68.5,53.6,29.99,East,87,0.0,0.0,59,0.00,,SCT250,0.00,VWS V14.01,2013-07-29 02:24:00,
2013-07-28 21:29:00,68.3,53.4,29.99,East,87,0.0,1.0,59,0.00,,SCT250,0.00,VWS V14.01,2013-07-29 02:29:00,
2013-07-28 21:34:00,68.1,52.8,29.99,East,87,0.0,0.0,58,0.00,,SCT250,0.00,VWS V14.01,2013-07-29 02:34:00,
2013-07-28 21:39:00,68.0,52.2,29.99,East,87,0.0,0.0,57,0.00,,SCT250,0.00,VWS V14.01,2013-07-29 02:39:00,
2013-07-28 21:44:00,67.8,52.0,30.00,East,87,0.0,0.0,57,0.00,,SCT250,0.00,VWS V14.01,2013-07-29 02:44:00,
2013-07-28 21:49:00,67.7,51.9,30.00,East,87,0.0,0.0,57,0.00,,SCT250,0.00,VWS V14.01,2013-07-29 02:49:00,
2013-07-28 21:55:00,67.5,51.3,30.00,East,87,0.0,0.0,56,0.00,,SCT250,0.00,VWS V14.01,2013-07-29 02:55:00,
2013-07-28 22:00:00,67.4,51.7,30.00,East,87,0.0,0.0,57,0.00,,SCT250,0.00,VWS V14.01,2013-07-29 03:00:00,
2013-07-28 22:05:00,67.3,51.1,30.00,East,87,0.0,0.0,56,0.00,,SCT250,0.00,VWS V14.01,2013-07-29 03:05:00,
2013-07-28 22:10:00,67.1,50.9,30.01,East,87,1.0,1.0,56,0.00,,SCT250,0.00,VWS V14.01,2013-07-29 03:10:00,
2013-07-28 22:15:00,67.0,50.8,30.01,East,87,0.0,1.0,56,0.00,,SCT250,0.00,VWS V14.01,2013-07-29 03:15:00,
2013-07-28 22:20:00,66.9,50.7,30.01,East,87,0.0,0.0,56,0.00,,SCT250,0.00,VWS V14.01,2013-07-29 03:20:00,
2013-07-28 22:25:00,66.8,51.1,30.01,East,87,0.0,0.0,57,0.00,,SCT250,0.00,VWS V14.01,2013-07-29 03:25:00,
2013-07-28 22:30:00,66.6,51.4,30.01,East,87,0.0,0.0,58,0.00,,SCT250,0.00,VWS V14.01,2013-07-29 03:30:00,
2013-07-28 22:35:00,66.4,51.2,30.01,East,87,0.0,0.0,58,0.00,,SCT250,0.00,VWS V14.01,2013-07-29 03:35:00,
2013-07-28 22:40:00,66.2,51.0,30.01,East,87,0.0,0.0,58,0.00,,SCT250,0.00,VWS V14.01,2013-07-29 03:40:00,
2013-07-28 22:45:00,66.0,50.8,30.01,East,87,0.0,0.0,58,0.00,,SCT250,0.00,VWS V14.01,2013-07-29 03:45:00,
2013-07-28 22:50:00,65.8,51.1,30.01,East,87,0.0,0.0,59,0.00,,SCT250,0.00,VWS V14.01,2013-07-29 03:50:00,
2013-07-28 22:55:00,65.6,50.9,30.01,East,87,0.0,0.0,59,0.00,,SCT250,0.00,VWS V14.01,2013-07-29 03:55:00,
2013-07-28 23:00:00,65.4,50.7,30.01,East,87,0.0,0.0,59,0.00,,SCT250,0.00,VWS V14.01,2013-07-29 04:00:00,
2013-07-28 23:01:00,65.4,50.7,30.01,East,87,0.0,0.0,59,0.00,,SCT250,0.00,VWS V14.01,2013-07-29 04:01:00,
2013-07-28 23:02:00,65.4,50.2,30.01,East,87,0.0,0.0,58,0.00,,SCT250,0.00,VWS V14.01,2013-07-29 04:02:00,
2013-07-28 23:03:00,65.3,50.2,30.01,East,87,0.0,0.0,58,0.00,,SCT250,0.00,VWS V14.01,2013-07-29 04:03:00,
2013-07-28 23:08:00,65.4,50.7,30.01,East,87,0.0,1.0,59,0.00,,SCT250,0.00,VWS V14.01,2013-07-29 04:08:00,
2013-07-28 23:13:00,65.5,51.3,30.02,East,97,0.0,1.0,60,0.00,,SCT250,0.00,VWS V14.01,2013-07-29 04:13:00,
2013-07-28 23:18:00,65.3,51.5,30.02,East,97,0.0,0.0,61,0.00,,SCT250,0.00,VWS V14.01,2013-07-29 04:18:00,
2013-07-28 23:23:00,65.2,51.9,30.02,East,97,0.0,0.0,62,0.00,,SCT250,0.00,VWS V14.01,2013-07-29 04:23:00,
2013-07-28 23:28:00,64.7,51.8,30.01,East,97,0.0,0.0,63,0.00,,SCT250,0.00,VWS V14.01,2013-07-29 04:28:00,
2013-07-28 23:33:00,64.5,52.1,30.02,East,97,0.0,0.0,64,0.00,,SCT250,0.00,VWS V14.01,2013-07-29 04:33:00,
2013-07-28 23:38:00,64.2,52.2,30.02,East,97,0.0,0.0,65,0.00,,SCT250,0.00,VWS V14.01,2013-07-29 04:38:00,
2013-07-28 23:43:00,63.9,52.3,30.01,East,97,0.0,0.0,66,0.00,,SCT250,0.00,VWS V14.01,2013-07-29 04:43:00,
2013-07-28 23:48:00,63.6,52.5,30.01,East,97,0.0,1.0,67,0.00,,SCT250,0.00,VWS V14.01,2013-07-29 04:48:00,
2013-07-28 23:53:00,63.5,53.2,30.01,East,97,0.0,1.0,69,0.00,,SCT250,0.00,VWS V14.01,2013-07-29 04:53:00,
2013-07-28 23:58:00,63.5,53.5,30.01,East,97,0.0,0.0,70,0.00,,SCT250,0.00,VWS V14.01,2013-07-29 04:58:00,